Stations météo

Publicité
Nimes/Garons, France (7646): Température de l'air & dewpoint: 11.07.2018 06:00:00 - 17.07.2018 06:00:00 (CEST)Nimes/Garons, France (7646): Vitesse du vent & gusts: 11.07.2018 06:00:00 - 17.07.2018 06:00:00 (CEST)Nimes/Garons, France (7646): Direction du vent: 11.07.2018 06:00:00 - 17.07.2018 06:00:00 (CEST)Nimes/Garons, France (7646): reduced air pressure: 11.07.2018 06:00:00 - 17.07.2018 06:00:00 (CEST)Nimes/Garons, France (7646): visibility: 11.07.2018 06:00:00 - 17.07.2018 06:00:00 (CEST)Nimes/Garons, France (7646): Quantités de précipitations: 11.07.2018 06:00:00 - 17.07.2018 06:00:00 (CEST)
Date & Time tt [°C] td [°C] ff [km/h] ff [knt] fx [km/h] fx [knt] dd ppp [hPa] vv [km] rr [mm]
17.07.2018 06:00:00 20,6 14,0 7 4 21 11 NW 1014,9 59 0,0
17.07.2018 05:00:00 21,2 14,1 10 5 29 16 NNW 1014,5 60 0,0
17.07.2018 04:00:00 22,3 14,2 16 9 34 18 NW 1014,3 59 0,0
17.07.2018 03:00:00 22,4 14,0 16 9 33 18 NW 1014,2 59 0,0
17.07.2018 02:00:00 22,5 14,3 17 9 33 18 NW 1014,2 60 0,0
17.07.2018 01:00:00 22,6 14,7 15 8 27 15 NW 1013,9 60 0,0
17.07.2018 00:00:00 23,1 14,4 14 7 26 14 NW 1013,8 60 0,0
16.07.2018 23:00:00 23,7 14,1 17 9 41 22 NW 1013,0 60 0,0
16.07.2018 22:00:00 24,4 14,2 25 14 46 25 NW 1011,9 60 0,0
16.07.2018 21:00:00 24,6 14,7 18 10 30 16 WNW 1011,3 60 0,0
16.07.2018 20:00:00 25,4 14,8 20 11 37 20 WNW 1010,6 52 0,0
16.07.2018 19:00:00 26,6 15,0 20 11 37 20 WNW 1009,8 36 0,0
16.07.2018 18:00:00 27,4 16,4 20 11 36 20 NW 1009,1 39 0,0
16.07.2018 17:00:00 27,4 17,6 18 10 30 16 NNW 1009,0 39 0,0
16.07.2018 16:00:00 26,4 17,5 18 10 44 24 NNW 1009,2 42 0,0
16.07.2018 15:00:00 26,7 18,3 28 15 40 22 N 1009,3 50 0,0
16.07.2018 14:00:00 23,3 19,0 16 8 23 12 NNW 1010,5 38 0,0
16.07.2018 13:00:00 23,9 18,1 12 6 26 14 N 1010,9 35 0,0
16.07.2018 12:00:00 22,6 19,4 16 9 27 15 N 1010,1 16 0,2
16.07.2018 11:00:00 19,9 17,9 10 6 26 14 WNW 1011,2 8 0,6
16.07.2018 10:00:00 20,3 17,3 21 11 33 18 NE 1009,8 11 2,2
16.07.2018 09:00:00 21,9 16,0 13 7 19 11 N 1009,8 45 0,0
16.07.2018 08:00:00 22,0 16,5 9 5 13 7 NNE 1010,5 40 0,0
16.07.2018 07:00:00 20,6 16,2 4 2 8 4 NNE 1011,2 51 0,0
16.07.2018 06:00:00 20,3 16,5 5 3 18 10 NE 1011,8 37 0,0
16.07.2018 05:00:00 21,0 16,0 7 4 15 8 NE 1011,4 56 0,0
16.07.2018 04:00:00 21,6 18,8 9 5 13 7 E 1012,1 38 0,0
16.07.2018 03:00:00 22,3 20,9 5 3 9 5 W 1014,0 9 0,0
16.07.2018 02:00:00 22,1 20,6 0 0 11 6 N 1013,9 10 0,0
16.07.2018 01:00:00 23,0 21,3 8 4 13 7 ENE 1013,5 12 0,0
16.07.2018 00:00:00 22,9 21,4 5 3 12 6 E 1013,7 10 0,0
15.07.2018 23:00:00 22,7 20,6 8 4 10 6 S 1013,0 14 0,0
15.07.2018 22:00:00 23,1 19,5 8 4 17 9 S 1012,9 23 0,0
15.07.2018 21:00:00 25,7 18,4 13 7 20 11 S 1012,4 20 0,0
15.07.2018 20:00:00 28,7 16,3 14 8 28 15 SSW 1011,8 44 0,0
15.07.2018 19:00:00 30,5 15,8 18 10 29 16 S 1011,8 38 0,0
15.07.2018 18:00:00 32,0 16,3 18 10 29 16 S 1011,8 17 0,0
15.07.2018 17:00:00 32,1 17,9 18 10 29 16 S 1012,2 19 0,0
15.07.2018 16:00:00 33,7 14,2 10 5 22 12 WSW 1012,5 19 0,0
15.07.2018 15:00:00 33,0 14,6 10 5 21 12 S 1013,1 60 0,0
15.07.2018 14:00:00 33,5 14,1 7 4 19 11 SSW 1013,6 60 0,0
15.07.2018 13:00:00 32,2 14,3 6 3 17 9 NW 1014,3 60 0,0
15.07.2018 12:00:00 30,6 14,7 5 3 23 12 NE 1014,4 60 0,0
15.07.2018 11:00:00 28,8 14,6 7 4 20 11 N 1014,6 59 0,0
15.07.2018 10:00:00 27,0 15,4 7 4 24 13 N 1014,8 58 0,0
15.07.2018 09:00:00 24,1 15,6 16 9 26 14 NE 1015,0 54 0,0
15.07.2018 08:00:00 22,5 15,6 10 6 19 11 NNE 1015,0 60 0,0
15.07.2018 07:00:00 21,7 15,3 10 6 33 18 NNE 1014,7 60 0,0
15.07.2018 06:00:00 21,8 16,1 13 7 21 12 NNW 1015,8 38 0,0
15.07.2018 05:00:00 21,1 15,6 6 3 10 6 NNW 1014,7 50 0,0
15.07.2018 04:00:00 20,6 17,0 5 3 8 5 NNE 1014,4 31 0,0
15.07.2018 03:00:00 19,0 16,0 5 3 10 6 N 1015,0 20 0,0
15.07.2018 02:00:00 21,4 16,6 0 0 7 4 N 1015,0 32 0,0
15.07.2018 01:00:00 21,7 16,6 4 2 13 7 S 1015,6 28 0,0
15.07.2018 00:00:00 21,8 14,4 3 2 10 5 NNE 1015,3 53 0,0
14.07.2018 23:00:00 23,3 16,1 4 2 9 5 SSW 1014,8 44 0,0
14.07.2018 22:00:00 24,8 16,2 0 0 10 6 N 1014,4 48 0,0
14.07.2018 21:00:00 26,3 17,4 5 3 18 10 SW 1013,8 48 0,0
14.07.2018 20:00:00 28,1 17,6 10 5 22 12 SW 1013,8 48 0,0
14.07.2018 19:00:00 29,2 17,4 14 8 26 14 S 1014,0 45 0,0
14.07.2018 18:00:00 30,9 16,9 16 9 29 16 S 1014,1 41 0,0
14.07.2018 17:00:00 32,1 17,2 18 10 30 16 S 1014,2 20 0,0
14.07.2018 16:00:00 33,6 16,5 10 5 24 13 S 1014,3 41 0,0
14.07.2018 15:00:00 33,5 16,4 11 6 23 12 S 1014,8 44 0,0
14.07.2018 14:00:00 33,9 13,9 6 4 16 9 N 1015,0 20 0,0
14.07.2018 13:00:00 33,3 15,8 5 3 17 9 NNW 1015,5 37 0,0
14.07.2018 12:00:00 32,2 15,7 6 4 17 9 NNE 1015,8 20 0,0
14.07.2018 11:00:00 29,1 16,6 7 4 18 10 NNE 1016,1 55 0,0
14.07.2018 10:00:00 26,5 16,7 10 5 19 11 NNW 1016,5 56 0,0
14.07.2018 09:00:00 24,3 15,2 9 5 18 10 WNW 1016,7 43 0,0
14.07.2018 08:00:00 22,1 14,2 11 6 18 10 N 1016,1 42 0,0
14.07.2018 07:00:00 22,0 13,9 13 7 22 12 NE 1015,8 51 0,0
14.07.2018 06:00:00 21,7 14,1 9 5 16 9 NE 1016,5 47 0,0
14.07.2018 05:00:00 20,2 13,4 5 3 12 6 NE 1017,0 52 0,0
14.07.2018 04:00:00 20,3 13,7 5 3 10 6 N 1017,2 51 0,0
14.07.2018 03:00:00 21,5 14,2 4 2 10 6 S 1018,0 55 0,0
14.07.2018 02:00:00 20,9 11,8 0 0 8 5 N 1016,9 60 0,0
14.07.2018 01:00:00 22,5 11,6 6 3 9 5 S 1017,1 60 0,0
14.07.2018 00:00:00 24,0 10,6 5 3 13 7 WSW 1016,7 60 0,0
13.07.2018 23:00:00 24,6 12,9 3 2 11 6 SW 1016,8 60 0,0
13.07.2018 22:00:00 25,1 13,6 4 2 13 7 SW 1016,5 60 0,0
13.07.2018 21:00:00 27,3 12,9 6 3 18 10 SSW 1015,9 60 0,0
13.07.2018 20:00:00 29,2 12,6 11 6 21 12 WSW 1015,4 47 0,0
13.07.2018 19:00:00 30,7 12,6 15 8 31 17 SW 1015,1 32 0,0
13.07.2018 18:00:00 31,6 11,9 19 10 32 17 S 1015,5 34 0,0
13.07.2018 17:00:00 32,6 13,8 18 10 40 22 SSW 1015,9 38 0,0
13.07.2018 16:00:00 33,9 13,4 12 7 24 13 SSW 1015,7 50 0,0
13.07.2018 15:00:00 33,6 11,4 5 3 18 10 S 1015,9 20 0,0
13.07.2018 14:00:00 33,1 11,6 7 4 17 9 S 1016,4 44 0,0
13.07.2018 13:00:00 32,1 10,7 5 3 19 10 ENE 1016,8 41 0,0
13.07.2018 12:00:00 31,0 11,9 8 5 18 10 NE 1017,1 48 0,0
13.07.2018 11:00:00 29,1 12,5 10 5 23 13 NNE 1017,3 20 0,0
13.07.2018 10:00:00 26,6 11,9 12 6 24 13 NNE 1017,2 48 0,0
13.07.2018 09:00:00 24,8 11,7 14 8 22 12 NNE 1017,4 54 0,0
13.07.2018 08:00:00 22,7 11,4 7 4 15 8 NE 1017,1 51 0,0
13.07.2018 07:00:00 19,6 11,9 8 4 11 6 N 1016,8 30 0,0
13.07.2018 06:00:00 17,5 11,5 5 3 9 5 NNW 1017,0 60 0,0
13.07.2018 05:00:00 19,1 10,9 3 2 12 7 N 1016,6 60 0,0
13.07.2018 04:00:00 19,0 12,7 7 4 9 5 N 1016,6 60 0,0
13.07.2018 03:00:00 18,9 14,8 4 2 5 3 NNW 1016,6 48 0,0
13.07.2018 02:00:00 18,9 14,8 2 1 8 4 NNW 1016,8 45 0,0
13.07.2018 01:00:00 19,2 14,5 5 3 9 5 NW 1016,6 50 0,0
13.07.2018 00:00:00 21,7 14,8 5 3 12 7 WSW 1016,5 59 0,0
12.07.2018 23:00:00 21,1 15,6 0 0 7 4 N 1016,3 58 0,0
12.07.2018 22:00:00 23,0 15,3 3 2 16 9 W 1015,5 60 0,0
12.07.2018 21:00:00 24,6 14,7 9 5 22 12 WSW 1015,0 50 0,0
12.07.2018 20:00:00 27,3 13,6 11 6 26 14 W 1014,5 53 0,0
12.07.2018 19:00:00 28,6 13,3 15 8 26 14 WSW 1014,4 50 0,0
12.07.2018 18:00:00 31,7 11,5 6 3 15 8 NW 1014,0 60 0,0
12.07.2018 17:00:00 31,1 11,0 6 3 23 12 NE 1014,3 19 0,0
12.07.2018 16:00:00 30,5 11,0 9 5 23 12 N 1014,5 20 0,0
12.07.2018 15:00:00 28,8 10,0 6 3 16 8 NNW 1015,0 20 0,0
12.07.2018 14:00:00 27,9 10,6 6 3 21 12 NW 1015,3 56 0,0
12.07.2018 13:00:00 27,5 10,7 4 2 14 8 SSE 1015,5 56 0,0
12.07.2018 12:00:00 26,1 10,3 8 5 22 12 NE 1015,6 56 0,0
12.07.2018 11:00:00 26,4 10,9 13 7 29 16 NNE 1015,3 42 0,0
12.07.2018 10:00:00 25,0 10,1 19 11 32 18 NNE 1015,3 43 0,0
12.07.2018 09:00:00 22,7 10,5 14 8 23 12 N 1015,2 50 0,0
12.07.2018 08:00:00 20,9 10,1 13 7 19 10 N 1014,7 56 0,0
12.07.2018 07:00:00 19,1 10,1 7 4 13 7 N 1014,7 57 0,0
12.07.2018 06:00:00 17,7 9,6 10 5 16 9 N 1014,4 60 0,0
12.07.2018 05:00:00 18,7 9,2 9 5 27 14 N 1014,1 60 0,0
12.07.2018 04:00:00 20,1 9,6 16 9 39 21 N 1013,7 60 0,0
12.07.2018 03:00:00 20,7 9,9 18 10 37 20 NNE 1013,2 60 0,0
12.07.2018 02:00:00 21,2 10,1 18 10 32 17 NNE 1013,7 60 0,0
12.07.2018 01:00:00 21,8 10,0 22 12 41 22 N 1014,0 60 0,0
12.07.2018 00:00:00 21,9 10,1 15 8 31 17 NNE 1014,2 60 0,0
11.07.2018 23:00:00 22,9 10,0 14 8 27 14 NNE 1013,6 60 0,0
11.07.2018 22:00:00 23,5 9,5 13 7 26 14 NNE 1013,0 60 0,0
11.07.2018 21:00:00 25,5 10,1 13 7 32 17 NNE 1012,3 52 0,0
11.07.2018 20:00:00 27,7 10,0 17 9 34 19 NNE 1011,6 39 0,0
11.07.2018 19:00:00 28,9 10,5 18 10 35 19 NNE 1011,4 33 0,0
11.07.2018 18:00:00 30,0 10,5 18 10 32 17 NNE 1011,0 20 0,0
11.07.2018 17:00:00 30,9 10,3 13 7 31 17 NNE 1011,0 20 0,0
11.07.2018 16:00:00 30,5 9,4 13 7 29 16 NNE 1011,3 30 0,0
11.07.2018 15:00:00 30,3 9,2 17 9 39 21 N 1011,7 28 0,0
11.07.2018 14:00:00 29,1 8,2 16 9 33 18 N 1012,2 27 0,0
11.07.2018 13:00:00 27,7 7,5 20 11 39 21 NNW 1012,5 30 0,0
11.07.2018 12:00:00 26,7 7,2 19 11 41 22 N 1013,0 32 0,0
11.07.2018 11:00:00 26,1 8,6 22 12 36 19 N 1013,1 36 0,0
11.07.2018 10:00:00 24,6 10,1 26 14 41 22 N 1013,4 36 0,0
11.07.2018 09:00:00 23,3 11,0 24 13 41 22 N 1013,3 46 0,0
11.07.2018 08:00:00 22,2 12,2 20 11 35 19 N 1013,4 57 0,0
11.07.2018 07:00:00 20,3 12,3 11 6 27 14 NNW 1013,3 60 0,0
11.07.2018 06:00:00 19,9 11,6 12 6 28 15 NNW 1013,3 60 0,0

tt = Température de l'air
td = dewpoint
ff = Vitesse du vent
fx = gusts
dd = Direction du vent
ppp = reduced air pressure
vv = visibility
rr = Quantités de précipitations

stations d'obs. à proximité